TimeEDT,TemperatureF,Dew PointF,Humidity,Sea Level PressureIn,VisibilityMPH,Wind Direction,Wind SpeedMPH,Gust SpeedMPH,PrecipitationIn,Events,Conditions,WindDirDegrees,DateUTC
12:15 AM,78.4,72.5,82,30.07,10.0,SSW,10.4,-,N/A,,Clear,200,2013-07-20 04:15:00
12:35 AM,78.1,72.5,83,30.07,10.0,SSW,9.2,-,N/A,,Clear,210,2013-07-20 04:35:00
12:55 AM,77.9,72.7,84,30.06,10.0,SSW,10.4,-,N/A,,Clear,200,2013-07-20 04:55:00
1:15 AM,77.5,72.9,85,30.06,10.0,SSW,10.4,-,N/A,,Clear,210,2013-07-20 05:15:00
1:35 AM,77.4,72.9,86,30.05,10.0,SSW,9.2,-,N/A,,Clear,200,2013-07-20 05:35:00
1:55 AM,77.0,73.0,88,30.04,10.0,SSW,9.2,-,N/A,,Clear,200,2013-07-20 05:55:00
2:15 AM,76.6,73.0,89,30.04,10.0,SSW,9.2,-,N/A,,Clear,200,2013-07-20 06:15:00
2:35 AM,76.5,73.0,89,30.04,10.0,SSW,10.4,-,N/A,,Clear,200,2013-07-20 06:35:00
2:55 AM,76.3,73.0,90,30.04,10.0,SSW,8.1,-,N/A,,Clear,210,2013-07-20 06:55:00
3:15 AM,76.1,73.0,90,30.04,10.0,SSW,9.2,-,N/A,,Clear,200,2013-07-20 07:15:00
3:35 AM,76.1,72.9,90,30.04,10.0,SSW,8.1,-,N/A,,Clear,200,2013-07-20 07:35:00
3:55 AM,75.7,72.7,90,30.05,10.0,SSW,6.9,-,N/A,,Clear,210,2013-07-20 07:55:00
4:15 AM,75.6,72.5,90,30.05,10.0,SSW,8.1,-,N/A,,Clear,210,2013-07-20 08:15:00
4:35 AM,75.6,72.7,91,30.05,10.0,SSW,9.2,-,N/A,,Scattered Clouds,210,2013-07-20 08:35:00
4:55 AM,75.4,72.5,91,30.05,10.0,SSW,9.2,-,N/A,,Scattered Clouds,210,2013-07-20 08:55:00
5:15 AM,75.2,72.5,91,30.05,10.0,SSW,6.9,-,N/A,,Clear,210,2013-07-20 09:15:00
5:35 AM,75.0,72.5,92,30.05,10.0,SSW,6.9,-,N/A,,Scattered Clouds,210,2013-07-20 09:35:00
5:55 AM,74.7,72.5,93,30.05,10.0,SSW,6.9,-,N/A,,Clear,210,2013-07-20 09:55:00
6:15 AM,74.8,72.7,93,30.04,10.0,SSW,6.9,-,N/A,,Clear,210,2013-07-20 10:15:00
6:35 AM,74.8,72.9,94,30.05,10.0,SW,6.9,-,N/A,,Clear,220,2013-07-20 10:35:00
6:55 AM,75.7,73.0,91,30.05,10.0,SW,8.1,-,N/A,,Clear,220,2013-07-20 10:55:00
6:56 AM,75.2,73.4,94,30.05,10.0,SW,8.1,-,N/A,,Clear,220,2013-07-20 10:56:00
7:56 AM,77.0,73.4,89,30.07,10.0,SW,10.4,-,N/A,,Overcast,220,2013-07-20 11:56:00
8:56 AM,80.6,71.6,74,30.07,10.0,SW,13.8,17.3,N/A,,Scattered Clouds,230,2013-07-20 12:56:00
9:56 AM,82.4,71.6,70,30.06,10.0,SW,13.8,19.6,N/A,,Scattered Clouds,230,2013-07-20 13:56:00
10:56 AM,86.0,71.6,62,30.06,10.0,WSW,11.5,17.3,N/A,,Scattered Clouds,240,2013-07-20 14:56:00
11:56 AM,87.8,69.8,55,30.05,10.0,SW,15.0,18.4,N/A,,Mostly Cloudy,220,2013-07-20 15:56:00
12:56 PM,89.6,69.8,52,30.04,10.0,SW,11.5,19.6,N/A,,Scattered Clouds,230,2013-07-20 16:56:00
1:56 PM,89.6,69.8,52,30.01,10.0,SW,12.7,17.3,N/A,,Scattered Clouds,230,2013-07-20 17:56:00
2:56 PM,89.6,69.8,52,29.99,10.0,SW,13.8,-,N/A,,Scattered Clouds,220,2013-07-20 18:56:00
3:56 PM,91.4,69.8,49,29.97,10.0,SW,11.5,18.4,N/A,,Scattered Clouds,230,2013-07-20 19:56:00
4:56 PM,87.8,71.6,58,29.96,10.0,South,12.7,-,N/A,,Scattered Clouds,190,2013-07-20 20:56:00
5:56 PM,87.8,69.8,55,29.96,10.0,South,12.7,18.4,N/A,,Clear,190,2013-07-20 21:56:00
6:56 PM,87.8,71.6,58,29.96,10.0,South,12.7,19.6,N/A,,Clear,190,2013-07-20 22:56:00
7:56 PM,84.2,71.6,66,29.98,10.0,SSW,10.4,-,N/A,,Scattered Clouds,200,2013-07-20 23:56:00
8:56 PM,80.6,71.6,74,30.00,10.0,SSW,10.4,-,N/A,,Clear,200,2013-07-21 00:56:00
9:15 PM,81.0,71.1,72,30.01,10.0,South,13.8,-,N/A,,Clear,190,2013-07-21 01:15:00
9:35 PM,80.1,71.2,74,30.01,10.0,SSW,9.2,-,N/A,,Clear,200,2013-07-21 01:35:00
9:55 PM,79.9,70.9,74,30.01,10.0,SSW,15.0,18.4,N/A,,Clear,210,2013-07-21 01:55:00
10:15 PM,79.2,70.9,76,30.02,10.0,SSW,9.2,16.1,N/A,,Clear,210,2013-07-21 02:15:00
10:35 PM,78.8,70.7,76,30.03,10.0,SSW,10.4,-,N/A,,Clear,200,2013-07-21 02:35:00
10:55 PM,78.1,71.1,79,30.03,10.0,SSW,9.2,-,N/A,,Clear,200,2013-07-21 02:55:00
11:15 PM,77.9,71.6,81,30.03,10.0,SSW,9.2,-,N/A,,Clear,200,2013-07-21 03:15:00
11:35 PM,77.4,71.6,82,30.03,10.0,SSW,10.4,-,N/A,,Clear,210,2013-07-21 03:35:00
11:55 PM,77.2,71.6,83,30.03,10.0,SSW,10.4,-,N/A,,Clear,210,2013-07-21 03:55:00